RH
11 14 20 29 16 10 10 9 17 26 34 51 61 52 48 60 48 62 96 99 96 97 99 63 59 68 56 53 81 80 76 75 76 77 75 64 47 38 46 58 78 75 69 50 29 28 30 37 46
14 20 21 20 11 9 6 13 16 28 59 64 65 63 58 60 62 87 97 89 87 91 98 96 60 62 58 57 54 59 64 63 61 53 48 43 38 42 52 56 75 82 82 68 33 37 32 30 32
18 22 22 16 11 8 9 17 19 40 62 49 60 60 56 59 72 91 95 97 83 84 96 92 64 66 72 70 60 60 62 78 65 66 54 48 45 46 62 66 76 81 80 78 46 41 42 32 27
21 25 22 14 11 12 12 16 18 35 43 54 60 48 50 62 82 94 92 97 95 88 88 82 76 72 80 82 81 80 76 74 72 70 70 66 53 52 53 58 72 80 81 73 80 45 48 45 31
21 20 12 15 13 14 15 17 18 31 31 44 59 51 47 67 99 98 98 98 92 94 95 94 88 74 73 77 79 78 75 75 78 78 74 67 58 61 63 66 66 75 77 75 80 77 57 57 41
21 20 11 10 10 13 16 17 16 17 23 52 55 45 48 72 75 92 98 95 95 91 92 92 89 87 81 78 79 73 76 70 71 77 81 80 76 72 73 74 72 73 73 79 77 77 77 66 68
18 15 12 14 13 15 16 19 16 15 22 37 52 44 46 48 46 53 91 95 93 94 94 93 93 91 89 90 90 88 82 79 73 73 76 78 78 85 83 80 76 75 77 80 78 77 75 84 80
28 20 18 17 13 15 19 21 21 16 17 51 52 44 42 47 41 39 39 46 57 69 76 71 81 89 98 99 93 94 82 88 91 89 90 88 78 74 79 85 83 83 78 79 81 80 78 81 94
25 18 14 15 19 18 22 20 23 23 21 26 33 41 47 45 42 41 40 39 38 36 34 32 30 29 30 32 34 50 74 93 79 90 90 89 87 88 84 82 82 84 85 78 75 83 83 82 98
18 16 13 20 18 18 21 22 20 20 20 22 30 41 48 42 42 44 42 34 31 30 29 29 28 27 25 23 23 26 31 40 68 88 87 88 86 89 89 89 90 90 88 87 84 79 83 89 99
28 17 23 24 29 30 22 23 24 19 21 20 23 43 48 46 46 37 28 27 27 26 27 26 25 26 27 28 26 22 21 20 22 28 52 69 64 69 88 86 84 84 83 90 88 84 84 87 88
25 27 28 29 35 28 23 27 23 23 18 22 27 44 47 48 37 29 27 28 29 27 25 24 24 26 28 29 29 28 28 26 28 27 28 33 33 36 40 47 50 51 55 69 86 91 87 84 88
29 26 33 35 35 33 34 27 24 24 26 23 40 48 46 38 33 28 29 28 27 26 25 26 28 30 30 28 26 24 23 24 23 24 25 25 27 28 28 30 32 32 30 29 32 46 73 91 89
33 33 31 34 30 31 30 26 31 24 28 32 43 41 37 33 28 29 30 28 26 26 27 28 29 29 28 27 26 24 23 22 22 21 21 22 23 23 23 23 24 27 26 25 24 24 23 27 75
38 32 28 29 31 25 31 22 22 24 29 32 34 32 33 31 29 35 29 27 26 30 30 31 30 29 26 23 22 21 20 19 19 19 19 18 18 18 18 20 25 26 26 26 25 24 24 24 22
28 27 21 25 33 31 25 12 19 26 28 27 28 29 33 28 34 36 32 28 32 31 30 29 28 27 25 24 23 21 19 19 18 18 19 19 20 21 22 20 18 20 24 28 31 33 30 29 27
24 22 18 18 33 30 26 16 20 29 29 26 27 28 31 38 37 37 34 33 33 32 32 32 30 29 29 28 24 22 20 20 21 21 22 22 22 22 23 26 28 26 23 23 27 32 36 39 37
23 19 21 20 28 33 29 24 18 25 28 26 25 26 32 37 40 38 37 35 35 36 36 35 34 35 34 27 24 22 24 24 24 24 24 25 28 30 31 32 35 38 37 33 33 38 43 49 52
25 24 22 20 32 35 30 29 23 21 29 26 25 26 30 36 44 38 40 38 38 39 39 38 38 36 29 25 23 23 23 23 24 26 30 33 36 39 43 46 48 46 46 47 42 47 54 65 63
33 29 27 26 33 33 27 28 21 22 22 24 26 26 29 38 47 44 42 39 41 40 40 41 40 33 27 25 24 23 24 25 27 30 38 45 46 48 55 61 64 62 60 63 84 63 61 92 99
32 26 24 24 33 34 32 20 20 22 22 25 27 27 28 38 45 46 44 43 42 43 43 43 36 30 27 25 25 26 25 28 32 35 41 46 51 56 59 67 72 73 70 77 95 95 96 96 90
43 34 35 35 37 40 31 26 17 16 24 24 26 30 27 38 45 53 46 45 45 45 44 39 32 29 27 27 28 27 30 35 42 45 50 52 56 61 66 73 78 79 80 76 97 99 99 100 98
41 48 42 41 47 48 34 48 13 21 17 20 23 25 29 34 46 54 49 46 47 47 42 34 30 28 28 29 32 35 40 48 51 54 55 57 56 59 64 67 72 80 83 81 81 95 99 98 100
46 38 40 48 52 66 30 27 16 14 14 22 29 27 31 33 46 54 55 49 49 43 36 34 32 30 33 38 40 43 47 50 56 62 64 73 71 71 70 67 66 67 70 76 82 89 90 96 97
43 38 61 64 72 39 36 38 19 18 17 22 25 32 40 38 50 58 51 50 44 38 36 35 33 35 41 44 46 46 50 56 62 68 74 81 85 85 82 76 74 73 70 69 73 82 92 92 97
45 39 54 50 44 36 42 34 17 25 30 33 36 40 48 50 53 57 53 44 37 34 36 34 36 40 43 47 48 51 56 61 69 71 78 82 78 72 75 78 72 67 68 74 78 80 86 87 90
50 56 38 52 49 52 25 27 22 30 31 36 42 50 52 54 56 60 47 39 37 39 36 34 35 40 47 52 55 60 63 69 72 82 84 90 84 75 73 71 68 68 67 68 73 84 85 92 99
49 40 58 54 68 56 35 31 26 29 32 38 44 49 52 53 53 48 40 40 42 38 37 39 40 42 48 57 64 69 75 83 92 95 90 91 87 76 69 69 69 69 71 75 77 76 82 94 95
58 52 52 50 52 60 38 27 29 33 34 39 40 46 49 48 49 50 42 44 43 44 40 38 43 47 49 57 64 72 82 88 98 99 92 88 80 72 68 73 67 70 74 74 73 74 74 80 88
55 49 43 48 52 60 57 39 29 35 36 41 41 46 47 49 51 44 43 45 46 43 41 44 45 55 66 70 70 77 81 86 92 99 91 79 75 67 68 71 71 81 93 98 88 83 94 98 98
Wind_Speed
1 3 4 0 4 4 4 1 1 2 4 1 3 2 1 8 1 2 10 5 10 12 11 10 12 12 12 12 11 11 11 11 10 10 8 7 7 7 6 5 6 7 5 4 5 6 7 7 7
3 5 3 2 5 7 3 1 3 2 3 7 6 4 3 3 4 5 9 8 13 13 11 10 12 12 12 12 11 10 10 9 8 7 7 7 7 7 6 5 5 7 5 4 4 4 5 4 4
4 5 3 2 2 6 4 2 1 4 6 2 3 3 2 4 4 8 7 10 15 13 11 10 11 12 11 11 11 10 9 8 7 6 7 7 6 6 5 5 6 7 6 4 3 2 2 3 2
4 1 1 5 6 3 3 2 1 6 3 0 2 6 4 2 4 5 8 11 13 13 11 11 11 12 11 10 10 9 9 8 8 7 6 6 6 5 5 4 5 7 7 3 5 3 1 1 1
2 1 3 3 4 3 4 2 4 5 3 2 2 5 4 4 6 6 5 11 12 13 12 12 13 13 12 11 10 9 9 9 7 6 6 5 5 6 5 5 5 6 6 4 5 5 3 2 1
1 1 4 5 4 2 4 5 7 5 4 3 2 6 5 8 7 6 10 11 13 13 13 10 11 11 11 11 11 11 11 10 9 8 6 5 6 6 5 5 5 6 6 6 5 5 5 5 3
2 2 3 4 5 4 1 3 6 6 6 6 4 4 6 8 10 10 10 11 10 12 11 10 11 12 12 11 11 12 10 11 11 9 7 6 6 6 5 5 5 5 6 7 6 7 7 8 6
1 2 2 1 4 3 1 2 1 4 3 6 6 4 6 12 13 11 11 10 10 9 8 6 5 8 9 11 12 14 16 13 9 9 8 6 6 7 7 5 6 6 7 7 8 8 9 9 10
2 3 4 2 2 3 0 4 2 1 4 3 3 3 7 18 14 11 9 8 7 6 5 4 3 2 4 3 3 1 2 12 8 8 8 6 6 7 6 7 7 8 8 8 8 9 10 10 12
2 2 2 2 3 4 4 4 4 5 6 4 4 7 14 18 14 11 8 7 6 5 5 4 4 4 3 3 4 3 2 1 3 5 5 5 6 8 7 8 8 9 9 10 11 10 11 12 12
2 2 1 1 3 5 4 4 4 5 6 7 8 12 18 16 13 10 9 8 7 6 6 6 6 6 6 4 4 3 2 3 3 4 5 7 9 10 10 10 11 11 11 11 12 13 13 13 15
3 2 2 1 1 2 3 2 4 7 3 1 4 13 18 15 12 10 7 7 6 6 6 6 6 6 6 6 5 4 3 2 1 1 4 5 7 8 9 10 11 11 11 12 12 13 14 15 16
4 1 2 2 3 4 3 6 6 7 6 4 11 15 16 14 12 10 9 9 8 8 9 10 11 11 11 9 8 6 5 3 2 1 3 5 7 8 10 11 11 12 12 13 14 14 14 15 17
1 3 4 3 3 2 4 5 3 1 6 9 15 14 14 13 12 12 11 12 12 13 15 16 16 15 14 12 10 7 5 3 2 4 5 6 7 8 9 10 11 12 13 14 15 15 16 17 17
1 5 4 5 3 2 2 7 8 3 8 14 15 14 13 13 12 11 14 15 16 18 18 18 15 13 9 7 4 3 3 5 6 8 9 10 11 12 14 14 14 13 14 13 13 14 14 15 16
2 2 4 3 4 2 2 5 1 4 11 15 15 14 11 12 13 14 15 17 19 18 17 15 12 9 5 2 2 5 7 7 8 9 10 11 12 13 15 16 17 18 18 18 17 16 16 15 16
2 4 4 1 3 2 5 4 2 4 11 16 15 12 13 13 15 17 17 19 19 17 14 11 9 5 3 3 6 8 9 10 10 11 12 13 14 14 15 16 17 18 20 21 21 21 20 19 18
3 4 3 4 2 4 5 12 7 5 12 16 16 14 13 16 18 20 18 20 18 16 13 10 6 3 3 6 9 10 10 11 11 12 13 14 14 15 16 17 17 17 18 20 21 21 21 21 21
1 3 5 2 1 4 7 11 11 8 11 17 19 16 16 16 15 22 21 21 19 16 12 8 6 5 6 8 9 10 13 14 14 15 14 15 15 15 14 15 15 15 16 18 20 21 22 21 23
4 7 9 5 1 4 5 12 12 10 16 19 22 20 17 18 18 22 22 23 20 16 13 9 6 6 7 9 12 14 17 18 18 17 16 14 14 16 16 15 15 14 15 14 15 18 21 20 20
7 9 6 5 1 3 8 12 12 8 15 14 19 20 18 21 22 25 25 24 21 17 13 9 7 7 8 10 13 15 16 17 16 17 16 14 14 15 16 16 16 16 16 15 13 14 16 18 20
4 2 5 4 3 4 2 6 5 6 10 13 19 22 21 22 20 22 27 25 21 17 12 9 7 7 9 11 13 15 17 17 18 18 19 18 16 16 16 17 17 18 18 18 15 14 15 16 20
1 0 1 2 3 2 6 4 4 3 9 15 19 22 23 23 24 24 26 25 21 16 12 8 7 7 9 12 14 16 17 18 19 20 21 20 19 17 18 18 19 20 20 21 19 18 16 17 19
7 3 3 1 2 4 8 9 6 7 5 1 0 14 19 23 25 24 24 24 20 15 11 7 6 7 9 12 14 16 18 19 18 19 20 18 17 15 13 17 19 21 22 23 22 20 21 19 20
5 5 2 4 4 4 2 5 9 7 4 6 7 6 13 21 27 26 29 25 19 13 10 6 6 7 10 12 15 17 19 17 16 17 18 18 15 13 13 12 13 15 18 22 24 24 22 21 21
9 4 3 5 3 1 2 6 0 2 9 9 8 6 11 20 25 26 27 23 18 13 8 5 5 8 11 14 17 18 18 16 14 15 15 16 16 17 15 16 17 17 16 16 18 23 24 23 24
5 7 2 0 0 4 4 4 6 2 5 5 2 7 13 19 21 21 22 19 16 11 6 4 6 10 13 16 18 19 18 15 13 13 15 16 17 18 18 19 20 19 20 20 20 21 24 25 24
4 5 3 3 4 5 4 4 4 6 9 5 2 9 13 15 16 19 19 17 13 9 4 4 8 11 13 15 18 20 16 14 13 14 15 16 18 19 20 20 19 19 20 22 23 22 21 23 27
4 4 3 2 2 3 3 2 3 6 8 5 4 11 15 15 16 17 17 14 11 5 3 5 8 10 12 15 19 19 15 14 15 15 14 16 17 18 22 21 20 19 18 18 16 16 19 23 24
3 6 11 6 5 2 2 3 4 4 6 1 6 13 13 14 15 16 14 12 8 4 4 6 7 10 12 15 21 19 15 14 15 15 14 16 17 20 24 23 21 19 17 16 16 15 18 17 19
Wind_Direction
138 156 144 221 239 239 261 186 299 178 188 106 139 241 145 10 48 25 150 130 159 159 160 166 169 169 171 173 168 159 158 155 158 158 161 162 162 160 160 150 147 146 140 111 95 91 101 114 124
142 142 136 216 257 254 252 16 233 127 114 119 115 129 119 88 61 103 138 153 165 162 157 163 171 168 173 175 175 172 168 167 166 168 168 167 163 163 167 169 168 168 160 136 104 86 85 96 114
132 150 227 231 250 274 311 8 327 132 135 127 132 70 80 84 84 141 168 164 167 170 160 171 171 172 172 176 179 180 176 169 175 171 164 163 166 169 166 172 169 172 172 169 147 121 80 75 88
138 190 40 254 258 259 289 351 163 172 199 275 133 102 83 91 127 152 172 177 176 170 172 164 167 175 170 175 180 177 177 183 184 184 179 169 171 175 178 182 180 186 189 192 198 196 192 67 38
141 243 243 270 278 272 238 231 187 180 179 196 195 123 96 93 131 140 176 173 177 174 165 164 164 178 182 183 188 191 192 192 193 187 190 186 187 188 183 184 190 199 207 213 213 225 234 236 345
224 264 251 274 279 294 272 214 192 202 165 165 192 135 115 140 132 124 146 164 170 192 190 176 179 183 181 186 191 194 194 197 199 202 205 198 199 196 200 202 205 212 215 220 235 245 250 236 265
283 262 309 297 306 295 334 184 225 200 177 164 158 157 136 147 143 120 123 150 166 181 186 188 194 195 198 204 206 205 197 192 200 204 209 219 219 212 214 210 214 217 222 225 231 246 255 248 247
86 274 248 241 328 321 62 185 315 226 161 151 161 183 170 173 154 138 127 127 131 145 156 177 199 221 210 225 226 232 214 211 204 209 219 212 218 222 228 226 230 237 232 234 237 249 249 246 243
112 249 291 301 274 30 113 230 170 194 160 186 199 164 152 168 161 154 149 147 151 160 165 175 182 169 153 186 224 319 53 208 201 219 225 225 241 232 231 240 247 251 254 251 254 251 247 243 241
237 250 335 341 321 302 311 250 192 197 181 194 203 188 165 170 166 167 166 173 179 190 206 219 224 220 217 211 225 230 228 233 209 215 236 246 261 263 252 253 259 262 263 269 261 255 251 237 236
174 264 84 296 282 286 273 236 204 225 213 213 215 178 166 165 168 175 180 185 195 209 221 222 226 221 205 190 175 195 216 227 239 237 232 245 252 257 271 270 269 265 268 266 261 255 252 249 240
256 241 239 290 286 279 263 257 230 234 264 235 213 178 166 168 171 177 184 188 189 185 182 177 167 165 163 160 141 128 129 130 149 249 249 252 259 263 267 266 268 270 272 268 262 259 257 250 246
237 274 234 258 260 260 275 254 277 250 234 226 166 166 167 166 173 175 175 169 160 156 146 139 130 128 126 128 120 113 102 82 49 307 289 282 276 272 271 272 270 270 268 267 269 267 262 258 251
150 274 267 255 234 242 261 258 271 221 214 173 167 167 171 175 181 178 167 159 152 143 133 127 125 120 116 112 107 97 82 53 359 325 308 298 292 287 280 274 272 270 270 271 270 270 270 266 259
248 280 248 223 222 217 277 238 236 235 176 173 175 174 178 178 183 178 168 161 153 142 135 131 130 127 125 118 99 54 350 327 310 299 295 289 284 281 279 277 276 274 274 273 273 274 274 274 268
238 255 257 121 188 147 224 275 132 213 181 180 183 180 183 183 176 174 170 166 157 151 147 145 144 146 147 140 346 333 326 320 311 305 295 287 281 276 274 273 271 270 270 269 269 270 273 275 277
210 257 240 217 208 159 229 285 59 201 211 190 189 197 184 174 177 176 174 170 163 163 162 163 167 177 209 291 321 328 330 327 321 312 303 296 290 285 281 277 272 266 264 262 263 265 267 270 271
201 231 220 264 134 225 226 259 252 234 213 220 202 196 199 184 181 180 178 175 175 176 178 182 195 225 280 313 325 329 329 326 322 314 307 300 291 285 281 278 276 273 271 269 263 262 260 260 261
166 233 261 246 98 265 247 268 263 226 219 218 220 210 198 193 185 183 182 183 184 184 188 200 218 251 296 314 319 325 331 330 326 319 313 305 301 295 288 282 281 278 272 270 265 263 261 262 265
228 256 256 255 188 257 274 279 273 224 226 217 209 213 203 183 183 187 186 185 189 193 198 210 231 274 304 319 329 333 332 329 325 321 319 311 303 296 292 290 287 285 283 280 274 267 262 259 256
230 241 247 270 228 226 295 268 239 216 221 215 209 207 206 196 186 185 188 188 190 194 201 212 244 283 306 322 328 330 327 323 318 314 311 310 304 297 291 285 283 282 287 285 276 268 265 257 259
259 248 257 243 227 259 298 285 219 201 220 219 210 206 199 196 195 187 186 189 191 196 204 221 258 289 311 321 326 329 328 326 321 321 317 315 309 301 293 287 281 278 279 284 278 271 264 258 253
324 157 215 258 197 303 203 259 236 195 230 227 216 214 208 198 190 187 189 190 191 195 203 223 252 290 311 321 327 327 328 326 324 322 318 315 310 297 290 287 284 281 279 280 279 270 265 258 255
145 125 105 116 201 234 220 227 248 223 227 83 70 226 212 196 188 182 183 187 191 194 207 228 264 299 313 322 322 322 325 326 325 326 325 324 322 318 304 285 280 280 278 277 275 272 264 261 257
209 184 244 228 210 250 89 221 268 276 297 308 299 256 209 193 181 173 179 182 186 194 207 233 277 303 316 318 316 321 324 324 323 328 334 336 335 336 332 330 323 306 290 279 272 268 265 264 259
195 226 231 273 249 66 133 231 279 27 308 299 285 241 185 177 175 170 175 177 183 190 208 247 293 315 318 316 318 323 324 319 310 318 324 328 332 330 326 324 321 318 315 309 285 266 262 260 262
160 215 19 69 56 269 231 239 260 357 14 358 345 164 167 165 161 160 166 173 177 187 211 259 308 317 316 317 321 325 323 316 304 303 309 312 319 324 323 319 316 314 310 307 298 280 266 260 258
241 140 169 196 232 236 208 260 232 10 351 358 178 171 157 152 150 158 165 172 180 189 209 291 314 315 319 325 328 328 324 322 309 302 306 313 315 317 320 319 319 313 309 306 297 276 276 265 259
165 208 219 288 242 268 277 150 105 10 351 326 190 177 165 159 161 164 171 177 186 199 259 302 314 321 326 335 338 335 325 325 323 320 316 314 315 320 324 315 306 302 308 313 313 297 288 280 267
281 253 218 236 203 237 306 246 131 2 346 302 174 176 174 169 170 174 179 184 192 218 278 300 306 319 331 338 344 339 324 319 317 315 317 319 316 323 322 312 303 301 301 313 300 289 286 285 274